Mersa Matruh, Egypt

12:19 PM EET on July 26, 2017 (GMT +0200)
Mersa Matruh

Weather History for HEMM - December, 2013

Change the Weather History Date:

Tuesday, December 3, 2013

  Actual Average Record
Temperature  
Mean Temperature 68 °F -  
Max Temperature 72 °F 64 °F 91 °F (2008)
Min Temperature 62 °F 51 °F 50 °F (2011)
Cooling Degree Days 2    
Growing Degree Days 18 (Base 50)    
Moisture  
Dew Point 59 °F    
Average Humidity 71    
Maximum Humidity 94    
Minimum Humidity 51    
Precipitation  
Precipitation 0.00 in 0.04 in - ()
Sea Level Pressure  
Sea Level Pressure 29.98 in    
Wind  
Wind Speed 13 mph ()    
Max Wind Speed 23 mph    
Max Gust Speed -    
Visibility 6.2 miles    
Events      
Averages and records for this station are not official NWS values.
T = Trace of Precipitation, MM = Missing Value Source: Averaged Metar Reports

Daily Weather History Graph

Daily Weather History Graph

Search for Another Location

Airport or City:

Trip Planner

Search our weather history database for the weather conditions in past years. The results will help you decide how hot, cold, wet, or windy it might be!

Date:

Astronomy

Dec. 03, 2013 Rise Set
Actual Time 6:53 AM EET 5:07 PM EET
Civil Twilight 6:27 AM EET 5:34 PM EET
Nautical Twilight 5:57 AM EET 6:04 PM EET
Astronomical Twilight 5:27 AM EET 6:33 PM EET
Moon 7:04 AM EET (12/3) 5:49 PM EET (12/3)
Length of Visible Light 11h 07m
Length of Day
10h 14m
New Moon, 0% of the Moon is Illuminated
Dec 3
New Moon
Dec 9
First Quarter
Dec 17
Full
Dec 25
Last Quarter
Jan 1
New

Hourly Weather History & Observations

Time (EET) Temp. Dew Point Humidity Pressure Visibility Wind Dir Wind Speed Gust Speed Precip Events Conditions
12:00 AM 68.0 °F 66.2 °F 94% 29.98 in 6.2 mi NW 9.2 mph - N/A   Scattered Clouds
1:00 AM 68.0 °F 66.2 °F 94% 29.98 in 6.2 mi WNW 9.2 mph - N/A   Scattered Clouds
2:00 AM 69 °F 66 °F 87% 29.98 in 6 mi NW 11.5 mph - -   Partly Cloudy
2:00 AM 68.0 °F 66.2 °F 94% 29.98 in 6.2 mi NW 11.5 mph - N/A   Scattered Clouds
3:00 AM 68.0 °F 66.2 °F 94% 29.95 in 6.2 mi NW 11.5 mph - N/A   Scattered Clouds
4:00 AM 66.2 °F 64.4 °F 94% 29.95 in 6.2 mi NNW 13.8 mph - N/A   Scattered Clouds
5:00 AM 69 °F 64 °F 79% 29.96 in 6 mi NNW 17.3 mph - -   Partly Cloudy
5:00 AM 68.0 °F 64.4 °F 88% 29.95 in 6.2 mi NNW 17.3 mph - N/A   Scattered Clouds
6:00 AM 68.0 °F 62.6 °F 83% 29.95 in 6.2 mi NNW 16.1 mph - N/A   Scattered Clouds
7:00 AM 68.0 °F 62.6 °F 83% 29.98 in 6.2 mi NNW 13.8 mph - N/A   Scattered Clouds
8:00 AM 69 °F 62 °F 71% 29.99 in 6 mi NNW 13.8 mph - -   Mostly Cloudy
8:00 AM 68.0 °F 60.8 °F 78% 29.98 in 6.2 mi NNW 13.8 mph - N/A   Scattered Clouds
9:00 AM 69.8 °F 60.8 °F 73% 29.98 in 6.2 mi NNW 17.3 mph - N/A   Scattered Clouds
10:00 AM 71.6 °F 59.0 °F 64% 30.01 in 6.2 mi NNW 17.3 mph - N/A   Scattered Clouds
11:00 AM 70 °F 59 °F 61% 29.99 in 6 mi NNW 13.8 mph - -   Partly Cloudy
11:00 AM 69.8 °F 59.0 °F 68% 29.98 in 6.2 mi NNW 13.8 mph - N/A   Scattered Clouds
12:00 PM 71.6 °F 59.0 °F 64% 29.98 in 6.2 mi NNW 16.1 mph - N/A   Scattered Clouds
1:00 PM 71.6 °F 59.0 °F 64% 29.95 in 6.2 mi NNW 18.4 mph - N/A   Scattered Clouds
2:00 PM 71 °F 60 °F 59% 29.96 in 6 mi NNW 20.7 mph - -   Partly Cloudy
2:00 PM 71.6 °F 59.0 °F 64% 29.95 in 6.2 mi NNW 20.7 mph - N/A   Scattered Clouds
3:00 PM 71.6 °F 55.4 °F 57% 29.95 in 6.2 mi NNW 23.0 mph - N/A   Scattered Clouds
4:00 PM 69.8 °F 53.6 °F 56% 29.98 in 6.2 mi WNW 23.0 mph - N/A   Scattered Clouds
5:00 PM 69 °F 55 °F 51% 29.98 in 6 mi NW 20.7 mph - -   Partly Cloudy
5:00 PM 69.8 °F 55.4 °F 60% 29.98 in 6.2 mi NW 20.7 mph - N/A   Scattered Clouds
6:00 PM 68.0 °F 53.6 °F 60% 29.98 in 6.2 mi NNW 20.7 mph - N/A   Scattered Clouds
7:00 PM 68.0 °F 55.4 °F 64% 29.98 in 6.2 mi NNW 17.3 mph - N/A   Scattered Clouds
8:00 PM 67 °F 55 °F 57% 30.01 in 6 mi NW 16.1 mph - -   Partly Cloudy
8:00 PM 68.0 °F 55.4 °F 64% 30.01 in 6.2 mi NW 16.1 mph - N/A   Scattered Clouds
9:00 PM 68.0 °F 53.6 °F 60% 30.01 in 6.2 mi NW 16.1 mph - N/A   Partly Cloudy
10:00 PM 66.2 °F 51.8 °F 60% 30.01 in 6.2 mi NW 15.0 mph - N/A   Partly Cloudy
11:00 PM 63 °F 52 °F 58% 30.01 in 6 mi West 11.5 mph - -   Scattered Clouds
11:00 PM 62.6 °F 51.8 °F 68% 30.01 in 6.2 mi West 11.5 mph - N/A   Partly Cloudy